Showing default

FLOCK 4BE 17, 60492

Orbit data source: Space-Track

FLOCK 4BE 17, 60492 is a payload satellite owned by Planet (US) in SSO that was launched on Fri, 16 Aug 2024 UTC via an FALCON 9 launch vehicle from the Air Force Western Test Range (AFWTR). Payload-class satellites include a variety of spacecraft equipped with specific instruments for various scientific and technological missions. These include communications satellites like Starlink; space stations such as the ISS; scientific satellites like the Hubble; Earth observation satellites from companies like Planet Labs, Umbra, and HawkEye 360; GPS; miniature CubeSats for education and research; and military/defense satellites.

Loading next visibility...
Identifier
60492, 2024-149AA
Orbit
SSO
Last TLE update
13 hours ago
Origin
Manufacturer
Planet
Mission
Operational Commercial Imaging
Bus & Motor
CUBESAT 3U, Unknown motor
Mass
5.7 kg wet, 5.7 kg dry
Launch date (UTC)
2024-08-16 (10 months ago)
Launch vehicle
FALCON 9
Launch site
Air Force Western Test Range (AFWTR)
Object type
Payload
Rocket body
Debris
Shape & HBR
Box + 2 Pan, 0.3 m
Radar Cross Section
0.035 m², Medium (>0.1 m² and < 1m²)

Expand to show TLE details & history

TLE from 13 hours ago
0 FLOCK 4BE 17
1 60492U 24149AA  25181.74013415  .00006464  00000-0  24006-3 0  9998
2 60492  97.4108 259.8866 0005110  83.2822 276.8999 15.27896221 48395
Epoch: 2025-06-30T17:45Z
TLE epoch observation values (Epoch: 2025-06-30T17:45:47.59Z)
Latitude
-0.00001°
Longitude
74.3927°
Altitude
484.784 km
Speed
7.623 km/s
True Right ascension
17h 19m 32s
True Declination
0° 00' 00"
Sunlit
Object was in full shadow at epoch
Visualization orbit readout
Latitude
24.57958°
Longitude
71.52613°
Altitude
483.284 km
Speed
7.627 km/s
Apparent Right ascension
14h 33m 25s
Apparent Declination
-32° 49' 57"
Sunlit
Object is in full shadow
Visualization observer readout
Local Sidereal Time
18:04:30
Azimuth
222.038° SW
Elevation
2.407°
Doppler factor
1
Orbital elements
Apogee altitude
482.562 km
Perigee altitude
475.554 km
Semi-major axis
6,857.195 km
Eccentricity
0.00051
Inclination
97.4108°
RAAN
259.8866°
Arg. of periapsis
83.2822°
True anomaly
Unknown
Mean anomaly
276.8999°
Eccentric anomaly
Unknown
Mean motion
3.82229 °/min
Orbital period
94.18 mins
BSTAR
0.00024006
Loading maneuver chart data...
Loading SW <> Apogee altitude chart data...
Loading historical data...
Loading historical data...
Loading historical data...
Loading historical data...
Loading historical data...
Loading historical data...
Loading historical data...

FLOCK 4BE 17 Visibility forecast

Observer location: undefined°, undefined°

Span
Click to sort rows by Start time (UTC) header in descending order
Start Az.
Max El. time (UTC)
Max El. Az.
Max El.
End time (UTC)
End Az.
6 mins2025-07-01 17:53:42.554Z19.703° NNE2025-07-01 17:56:42.554Z69.765° E39.919°2025-07-01 17:59:42.554Z178.856° S
4 mins2025-07-02 06:03:42.554Z234.501° WSW2025-07-02 06:04:42.554Z256.788° W19.409°2025-07-02 06:07:42.554Z315.091° NNW
|